Flag for U.S.A. Weather past 2 weeks in Corpus Christi, Texas, U.S.A.

Now
76 °F

Partly cloudy.


Feels Like: 76 °F
Forecast: 76 / 90 °F
Wind: 10 mph from Southeast

Location: Corpus Christi International Airport

Current Time: Sep 1, 2015 at 8:06:15 AM

Latest Report: Sep 1, 2015 at 6:51 AM


Visibility: 10 mi

Pressure: 29.97 "Hg

Humidity: 91%

Dew point: 73 °F

Location of Corpus ChristiLocation

Historic Weather in Corpus Christi — Graph

°F

Corpus Christi temperature yesterday

Maximum temperature yesterday: 93 °F (at 11:51 AM)
Minimum temperature yesterday: 75 °F (at 6:51 AM)
Average temperature yesterday: 81 °F

Past Weeks' High & Low Weather Summary

 TemperatureHumidityPressure
High97 °F (Aug 24, 2:51 PM)97% (Aug 25, 4:51 AM)30.10 "Hg (Aug 25, 4:51 AM)
Low68 °F (Aug 28, 6:51 AM)36% (Aug 27, 12:51 PM)29.74 "Hg (Aug 19, 4:51 PM)
Average84 °F70%29.94 "Hg
* Reported Aug 17 5:51 AM — Sep 1 5:51 AM, Corpus Christi, Weather by CustomWeather, © 2015

Note: Actual official high and low records may vary slightly from our data, if they occured in-between our weather recording intervals... More about our weather records

Advertising

Corpus Christi weather history for previous 24 hours

 ConditionsComfort  
Time TempWeatherWind HumidityBarometerVisibility
5:51 AM
Tue, Sep 1
73 °FPassing clouds.6 mph90%29.95 "Hg10 mi
4:51 AM73 °FPassing clouds.7 mph90%29.94 "Hg10 mi
3:51 AM75 °FThunderstorms. Passing clouds.10 mph88%29.94 "Hg9 mi
2:51 AM77 °FThunderstorms. Passing clouds.7 mph85%29.94 "Hg10 mi
1:51 AM80 °FPartly cloudy.16 mph81%29.98 "Hg10 mi
12:51 AM79 °FLight rain. Passing clouds.7 mph88%29.98 "Hg10 mi
11:51 PM
Mon, Aug 31
80 °FPartly cloudy.8 mph85%29.98 "Hg10 mi
10:51 PM80 °FOvercast.8 mph87%29.97 "Hg10 mi
9:51 PM80 °FMostly cloudy.8 mph81%29.96 "Hg10 mi
8:51 PM81 °FMostly cloudy.10 mph82%29.94 "Hg10 mi
7:51 PM82 °FBroken clouds.9 mph77%29.92 "Hg10 mi
6:51 PM83 °FBroken clouds.13 mph74%29.94 "Hg10 mi
5:51 PM83 °FBroken clouds.14 mph72%29.92 "Hg10 mi
3:51 PM81 °FThunderstorms. Cloudy.6 mph79%29.95 "Hg7 mi
3:02 PM81 °FThunderstorms. Broken clouds.17 mph79%29.98 "Hg10 mi
1:51 PM80 °FThunderstorms. Broken clouds.8 mph79%29.98 "Hg10 mi
12:51 PM79 °FThunderstorms. Partly sunny.20 mph74%29.98 "Hg10 mi
11:51 AM93 °FThunderstorms. Broken clouds.13 mph52%29.98 "Hg10 mi
10:51 AM89 °FBroken clouds.7 mph59%29.98 "Hg10 mi
9:51 AM87 °FBroken clouds.9 mph65%29.98 "Hg10 mi
8:51 AM82 °FPartly sunny.3 mph79%29.98 "Hg10 mi
Weather by CustomWeather, © 2015

See weather overviewHow to use our weather pages